AAL2459 KONT-KPHX

Flight info

Callsign AAL2459
Flight time 0h 52m
Altitude 27000
Route RAJEE4 MTBAL DCT CNERY DCT BLH HYDRR1
Aircraft A320/M-SDE3FGHIRWY/LB1

Departure

Time 2026-05-05 03:55
Airport Ontario International Airport (KONT)

Arrival

Time 2026-05-05 04:48
Airport Phoenix Sky Harbor International Airport (KPHX)
Time Latitude Longitude Altitude Speed Heading
2026-05-05 03:41 34.05976 -117.58644 958 ft 0 kts
2026-05-05 03:42 34.05965 -117.58644 958 ft 4 kts 360°
2026-05-05 03:43 34.05939 -117.58645 958 ft 4 kts 13°
2026-05-05 03:43 34.05914 -117.58657 958 ft 4 kts 39°
2026-05-05 03:43 34.05899 -117.58681 958 ft 3 kts 85°
2026-05-05 03:43 34.05899 -117.58691 958 ft 0 kts 90°
2026-05-05 03:51 34.05899 -117.58685 958 ft 4 kts 90°
2026-05-05 03:51 34.05899 -117.58601 958 ft 12 kts 90°
2026-05-05 03:51 34.05898 -117.58504 958 ft 11 kts 90°
2026-05-05 03:52 34.05898 -117.58410 958 ft 11 kts 90°
2026-05-05 03:52 34.05898 -117.58315 958 ft 11 kts 90°
2026-05-05 03:52 34.05864 -117.58270 958 ft 8 kts 188°
2026-05-05 03:52 34.05811 -117.58272 958 ft 8 kts 180°
2026-05-05 03:53 34.05785 -117.58272 958 ft 0 kts 180°
2026-05-05 03:54 34.05784 -117.58272 958 ft 1 kts 180°
2026-05-05 03:54 34.05758 -117.58272 958 ft 6 kts 180°
2026-05-05 03:54 34.05708 -117.58278 958 ft 8 kts 212°
2026-05-05 03:54 34.05690 -117.58338 958 ft 8 kts 271°
2026-05-05 03:55 34.05689 -117.58569 959 ft 64 kts 269°
2026-05-05 03:55 34.05690 -117.59421 959 ft 136 kts 269°
2026-05-05 03:55 34.05701 -117.60729 1240 ft 163 kts 268°
2026-05-05 03:55 34.05604 -117.62070 2059 ft 160 kts 252°
2026-05-05 03:56 34.05010 -117.63173 2796 ft 163 kts 222°
2026-05-05 03:56 34.03868 -117.63671 2989 ft 195 kts 181°
2026-05-05 03:56 34.02471 -117.63075 3099 ft 237 kts 146°
2026-05-05 03:56 34.01130 -117.61678 3340 ft 270 kts 140°
2026-05-05 03:57 33.99669 -117.60152 3990 ft 283 kts 143°
2026-05-05 03:57 33.98128 -117.58712 4976 ft 282 kts 146°
2026-05-05 03:57 33.96563 -117.57330 6137 ft 275 kts 146°
2026-05-05 03:57 33.95009 -117.55953 7151 ft 276 kts 146°
2026-05-05 03:58 33.93477 -117.54555 7921 ft 283 kts 145°
2026-05-05 03:58 33.91906 -117.53108 8739 ft 287 kts 146°
2026-05-05 03:58 33.90271 -117.51687 9548 ft 291 kts 148°
2026-05-05 03:58 33.88600 -117.50286 10334 ft 295 kts 148°
2026-05-05 03:59 33.86868 -117.48859 10901 ft 309 kts 149°
2026-05-05 03:59 33.85053 -117.47360 11340 ft 325 kts 149°
2026-05-05 03:59 33.83156 -117.45776 11832 ft 338 kts 148°
2026-05-05 03:59 33.81189 -117.44128 12260 ft 353 kts 148°
2026-05-05 04:00 33.79144 -117.42412 12762 ft 362 kts 148°
2026-05-05 04:00 33.77091 -117.40687 13459 ft 365 kts 148°
2026-05-05 04:00 33.75000 -117.38930 14157 ft 368 kts 149°
2026-05-05 04:00 33.72958 -117.37043 14814 ft 375 kts 140°
2026-05-05 04:01 33.71337 -117.34558 15445 ft 385 kts 122°
2026-05-05 04:01 33.70464 -117.31481 16046 ft 395 kts 102°
2026-05-05 04:01 33.70158 -117.28183 16655 ft 400 kts 97°
2026-05-05 04:01 33.69959 -117.24829 17214 ft 404 kts 97°
2026-05-05 04:02 33.69748 -117.21453 17750 ft 408 kts 98°
2026-05-05 04:02 33.69463 -117.18047 18279 ft 411 kts 99°
2026-05-05 04:02 33.69117 -117.14642 18780 ft 415 kts 101°
2026-05-05 04:02 33.68744 -117.11183 19261 ft 419 kts 101°
2026-05-05 04:03 33.68381 -117.07691 19733 ft 423 kts 101°
2026-05-05 04:03 33.68037 -117.04160 20195 ft 428 kts 101°
2026-05-05 04:03 33.67705 -117.00589 20619 ft 433 kts 101°
2026-05-05 04:03 33.67369 -116.96986 21044 ft 437 kts 101°
2026-05-05 04:04 33.67021 -116.93347 21460 ft 441 kts 101°
2026-05-05 04:04 33.66659 -116.89668 21866 ft 445 kts 102°
2026-05-05 04:04 33.66292 -116.85963 22248 ft 449 kts 102°
2026-05-05 04:04 33.65925 -116.82240 22761 ft 450 kts 102°
2026-05-05 04:05 33.65556 -116.78494 23229 ft 451 kts 102°
2026-05-05 04:05 33.65187 -116.74742 23706 ft 453 kts 102°
2026-05-05 04:05 33.64818 -116.70978 24181 ft 454 kts 103°
2026-05-05 04:05 33.64449 -116.67209 24669 ft 454 kts 103°
2026-05-05 04:06 33.64077 -116.63445 25143 ft 455 kts 104°
2026-05-05 04:06 33.63703 -116.59675 25640 ft 454 kts 105°
2026-05-05 04:06 33.63328 -116.55911 26096 ft 455 kts 105°
2026-05-05 04:06 33.62951 -116.52144 26582 ft 454 kts 106°
2026-05-05 04:07 33.62577 -116.48427 26901 ft 452 kts 107°
2026-05-05 04:07 33.62210 -116.44721 26933 ft 444 kts 107°
2026-05-05 04:07 33.61846 -116.41054 26937 ft 441 kts 107°
2026-05-05 04:07 33.61472 -116.37395 26942 ft 444 kts 108°
2026-05-05 04:08 33.61113 -116.33706 26938 ft 448 kts 104°
2026-05-05 04:08 33.60948 -116.29955 26933 ft 451 kts 102°
2026-05-05 04:08 33.60853 -116.26177 26925 ft 453 kts 101°
2026-05-05 04:08 33.60787 -116.22397 26918 ft 454 kts 101°
2026-05-05 04:09 33.60718 -116.18620 26911 ft 453 kts 101°
2026-05-05 04:09 33.60627 -116.14835 26913 ft 453 kts 101°
2026-05-05 04:09 33.60519 -116.11060 26905 ft 453 kts 102°
2026-05-05 04:09 33.60404 -116.07277 26895 ft 454 kts 102°
2026-05-05 04:10 33.60339 -116.03481 26894 ft 458 kts 98°
2026-05-05 04:10 33.60431 -115.99650 26922 ft 459 kts 97°
2026-05-05 04:10 33.60516 -115.97119 26943 ft 459 kts 96°
2026-05-05 04:10 33.60663 -115.93302 26964 ft 458 kts 96°
2026-05-05 04:11 33.60809 -115.89484 26950 ft 458 kts 97°
2026-05-05 04:11 33.60941 -115.85662 26929 ft 458 kts 97°
2026-05-05 04:11 33.61056 -115.81845 26908 ft 458 kts 97°
2026-05-05 04:11 33.61165 -115.78023 26899 ft 458 kts 97°
2026-05-05 04:12 33.61277 -115.74194 26872 ft 459 kts 97°
2026-05-05 04:12 33.61395 -115.70372 26891 ft 459 kts 97°
2026-05-05 04:12 33.61514 -115.66549 26886 ft 458 kts 97°
2026-05-05 04:12 33.61632 -115.62732 26882 ft 458 kts 97°
2026-05-05 04:13 33.61742 -115.58906 26889 ft 457 kts 98°
2026-05-05 04:13 33.61619 -115.55129 26909 ft 453 kts 105°
2026-05-05 04:13 33.61280 -115.51324 26919 ft 464 kts 107°
2026-05-05 04:13 33.60878 -115.47442 26929 ft 475 kts 107°
2026-05-05 04:14 33.60451 -115.43520 26928 ft 486 kts 107°
2026-05-05 04:14 33.60021 -115.39456 26928 ft 496 kts 106°
2026-05-05 04:14 33.59612 -115.35325 26930 ft 504 kts 105°
2026-05-05 04:14 33.59210 -115.31113 26927 ft 511 kts 105°
2026-05-05 04:15 33.58804 -115.26863 26925 ft 515 kts 105°
2026-05-05 04:15 33.58380 -115.22580 26925 ft 519 kts 105°
2026-05-05 04:15 33.57937 -115.18274 26922 ft 523 kts 106°
2026-05-05 04:15 33.57484 -115.13935 26919 ft 526 kts 105°
2026-05-05 04:16 33.57035 -115.09577 26917 ft 528 kts 105°
2026-05-05 04:16 33.56592 -115.05210 26916 ft 528 kts 105°
2026-05-05 04:16 33.56149 -115.00829 26919 ft 531 kts 105°
2026-05-05 04:16 33.55698 -114.96420 26916 ft 534 kts 105°
2026-05-05 04:17 33.55240 -114.91998 26918 ft 535 kts 105°
2026-05-05 04:17 33.54784 -114.87625 26938 ft 536 kts 105°
2026-05-05 04:17 33.54317 -114.83140 26948 ft 535 kts 105°
2026-05-05 04:17 33.53864 -114.78780 26935 ft 528 kts 105°
2026-05-05 04:18 33.53425 -114.74479 26922 ft 514 kts 105°
2026-05-05 04:18 33.52979 -114.70225 26925 ft 515 kts 106°
2026-05-05 04:18 33.52518 -114.65960 26919 ft 515 kts 106°
2026-05-05 04:18 33.52056 -114.61708 26915 ft 515 kts 106°
2026-05-05 04:19 33.51600 -114.57451 26913 ft 515 kts 106°
2026-05-05 04:19 33.51150 -114.53196 26912 ft 515 kts 106°
2026-05-05 04:19 33.50701 -114.48942 26912 ft 515 kts 105°
2026-05-05 04:19 33.50248 -114.44688 26913 ft 514 kts 106°
2026-05-05 04:20 33.49786 -114.40424 26868 ft 517 kts 106°
2026-05-05 04:20 33.49326 -114.36173 26698 ft 513 kts 106°
2026-05-05 04:20 33.48866 -114.31940 26452 ft 512 kts 106°
2026-05-05 04:20 33.48407 -114.27722 26205 ft 510 kts 105°
2026-05-05 04:21 33.47947 -114.23512 25961 ft 509 kts 105°
2026-05-05 04:21 33.47488 -114.19320 25715 ft 507 kts 105°
2026-05-05 04:21 33.47029 -114.15133 25467 ft 505 kts 105°
2026-05-05 04:21 33.46571 -114.10969 25148 ft 504 kts 105°
2026-05-05 04:22 33.46014 -114.06853 24909 ft 497 kts 110°
2026-05-05 04:22 33.45248 -114.02807 24915 ft 500 kts 111°
2026-05-05 04:22 33.44411 -113.98751 24921 ft 504 kts 112°
2026-05-05 04:22 33.43542 -113.94672 24928 ft 507 kts 112°
2026-05-05 04:23 33.42686 -113.90570 24928 ft 509 kts 111°
2026-05-05 04:23 33.41860 -113.86442 24929 ft 510 kts 111°
2026-05-05 04:23 33.41056 -113.82312 24932 ft 510 kts 111°
2026-05-05 04:23 33.40260 -113.78220 24920 ft 495 kts 111°
2026-05-05 04:24 33.39491 -113.74302 24903 ft 473 kts 111°
2026-05-05 04:24 33.38736 -113.70548 24714 ft 456 kts 112°
2026-05-05 04:24 33.37982 -113.66901 24312 ft 447 kts 112°
2026-05-05 04:25 33.36542 -113.59914 23655 ft 421 kts 112°
2026-05-05 04:25 33.35859 -113.56545 23153 ft 412 kts 112°
2026-05-05 04:25 33.35181 -113.53226 22516 ft 408 kts 112°
2026-05-05 04:25 33.34509 -113.49946 22047 ft 400 kts 111°
2026-05-05 04:26 33.33863 -113.46763 21708 ft 389 kts 111°
2026-05-05 04:26 33.33283 -113.43614 21074 ft 389 kts 109°
2026-05-05 04:26 33.32723 -113.40425 20411 ft 393 kts 108°
2026-05-05 04:26 33.32175 -113.37217 19820 ft 394 kts 107°
2026-05-05 04:27 33.31629 -113.34007 19318 ft 393 kts 107°
2026-05-05 04:27 33.31084 -113.30824 18873 ft 389 kts 107°
2026-05-05 04:27 33.30538 -113.27671 18502 ft 385 kts 107°
2026-05-05 04:27 33.29993 -113.24541 18301 ft 384 kts 107°
2026-05-05 04:28 33.29487 -113.21413 18103 ft 383 kts 105°
2026-05-05 04:28 33.29028 -113.18278 17906 ft 382 kts 104°
2026-05-05 04:28 33.28592 -113.15194 17708 ft 381 kts 104°
2026-05-05 04:28 33.28155 -113.12074 17509 ft 379 kts 104°
2026-05-05 04:29 33.27715 -113.08978 17310 ft 377 kts 104°
2026-05-05 04:29 33.27419 -113.05853 17109 ft 380 kts 95°
2026-05-05 04:29 33.27430 -113.02696 16915 ft 376 kts 91°
2026-05-05 04:29 33.27542 -112.99609 16713 ft 368 kts 90°
2026-05-05 04:30 33.27675 -112.96591 16511 ft 360 kts 90°
2026-05-05 04:30 33.27784 -112.93625 16314 ft 356 kts 91°
2026-05-05 04:30 33.27861 -112.90677 16115 ft 354 kts 92°
2026-05-05 04:30 33.27919 -112.87745 15925 ft 352 kts 92°
2026-05-05 04:31 33.27977 -112.84824 15723 ft 351 kts 92°
2026-05-05 04:31 33.28067 -112.81911 15518 ft 350 kts 89°
2026-05-05 04:31 33.28299 -112.79019 15318 ft 349 kts 87°
2026-05-05 04:31 33.28580 -112.76143 15119 ft 348 kts 86°
2026-05-05 04:32 33.28874 -112.73280 14915 ft 346 kts 86°
2026-05-05 04:32 33.29156 -112.70433 14715 ft 344 kts 86°
2026-05-05 04:32 33.29423 -112.67599 14486 ft 342 kts 87°
2026-05-05 04:32 33.29681 -112.64780 14288 ft 340 kts 87°
2026-05-05 04:33 33.29940 -112.61972 14090 ft 339 kts 86°
2026-05-05 04:33 33.30200 -112.59181 13903 ft 337 kts 86°
2026-05-05 04:33 33.30459 -112.56400 13712 ft 336 kts 86°
2026-05-05 04:33 33.30716 -112.53634 13512 ft 334 kts 86°
2026-05-05 04:34 33.30978 -112.50882 13313 ft 332 kts 86°
2026-05-05 04:34 33.31253 -112.48181 13119 ft 331 kts 86°
2026-05-05 04:34 33.31502 -112.45457 12925 ft 329 kts 87°
2026-05-05 04:34 33.31734 -112.42743 12725 ft 327 kts 87°
2026-05-05 04:35 33.31967 -112.40037 12521 ft 326 kts 87°
2026-05-05 04:35 33.32207 -112.37352 12320 ft 324 kts 87°
2026-05-05 04:35 33.32453 -112.34678 12116 ft 323 kts 87°
2026-05-05 04:35 33.32701 -112.32016 11908 ft 321 kts 87°
2026-05-05 04:36 33.32946 -112.29365 11705 ft 320 kts 87°
2026-05-05 04:36 33.33184 -112.26727 11471 ft 317 kts 87°
2026-05-05 04:36 33.33420 -112.24105 11069 ft 316 kts 87°
2026-05-05 04:36 33.33655 -112.21497 10684 ft 315 kts 87°
2026-05-05 04:37 33.33890 -112.18902 10310 ft 312 kts 87°
2026-05-05 04:37 33.34123 -112.16333 9930 ft 310 kts 87°
2026-05-05 04:37 33.34353 -112.13785 9562 ft 307 kts 86°
2026-05-05 04:37 33.34580 -112.11258 9186 ft 304 kts 86°
2026-05-05 04:38 33.34757 -112.08765 8993 ft 295 kts 91°
2026-05-05 04:38 33.34767 -112.06384 8983 ft 277 kts 94°
2026-05-05 04:38 33.34711 -112.04136 8858 ft 265 kts 96°
2026-05-05 04:38 33.34654 -112.01960 8625 ft 257 kts 95°
2026-05-05 04:39 33.34630 -111.99874 8247 ft 253 kts 94°
2026-05-05 04:39 33.34585 -111.97756 7725 ft 257 kts 95°
2026-05-05 04:39 33.34522 -111.95636 7441 ft 252 kts 94°
2026-05-05 04:39 33.34495 -111.93560 7184 ft 247 kts 93°
2026-05-05 04:40 33.34519 -111.91544 6931 ft 240 kts 91°
2026-05-05 04:40 33.34576 -111.89567 6621 ft 235 kts 90°
2026-05-05 04:40 33.34617 -111.87631 6445 ft 224 kts 91°
2026-05-05 04:40 33.34639 -111.85860 6364 ft 208 kts 91°
2026-05-05 04:41 33.34674 -111.84137 6001 ft 208 kts 91°
2026-05-05 04:41 33.34708 -111.82396 5608 ft 210 kts 91°
2026-05-05 04:41 33.34737 -111.80658 5262 ft 208 kts 90°
2026-05-05 04:41 33.35057 -111.78991 4910 ft 208 kts 63°
2026-05-05 04:42 33.36007 -111.77723 4557 ft 205 kts 33°
2026-05-05 04:42 33.37320 -111.77118 4221 ft 201 kts 12°
2026-05-05 04:42 33.38681 -111.76768 4038 ft 200 kts 10°
2026-05-05 04:42 33.40052 -111.76510 4036 ft 200 kts 358°
2026-05-05 04:43 33.41360 -111.76950 4020 ft 195 kts 325°
2026-05-05 04:43 33.42277 -111.78112 4040 ft 192 kts 302°
2026-05-05 04:43 33.42773 -111.79564 4033 ft 189 kts 277°
2026-05-05 04:43 33.42859 -111.81129 4038 ft 188 kts 270°
2026-05-05 04:44 33.42880 -111.82696 4047 ft 189 kts 269°
2026-05-05 04:44 33.42881 -111.84273 3925 ft 190 kts 268°
2026-05-05 04:44 33.42874 -111.85841 3684 ft 186 kts 269°
2026-05-05 04:44 33.42878 -111.87380 3439 ft 181 kts 269°
2026-05-05 04:45 33.42880 -111.88830 3272 ft 168 kts 269°
2026-05-05 04:45 33.42879 -111.90217 2879 ft 167 kts 269°
2026-05-05 04:45 33.42881 -111.91584 2560 ft 157 kts 269°
2026-05-05 04:45 33.42880 -111.92827 2350 ft 142 kts 270°
2026-05-05 04:46 33.42882 -111.93962 2172 ft 132 kts 270°
2026-05-05 04:46 33.42882 -111.95060 2002 ft 132 kts 270°
2026-05-05 04:46 33.42883 -111.96154 1826 ft 131 kts 270°
2026-05-05 04:46 33.42883 -111.97231 1653 ft 131 kts 270°
2026-05-05 04:47 33.42884 -111.98320 1480 ft 131 kts 270°
2026-05-05 04:47 33.42884 -111.99419 1294 ft 130 kts 270°
2026-05-05 04:47 33.42882 -112.00487 1159 ft 129 kts 270°
2026-05-05 04:47 33.42882 -112.01391 1149 ft 71 kts 271°
2026-05-05 04:48 33.42883 -112.01801 1149 ft 45 kts 270°
2026-05-05 04:48 33.42894 -112.02100 1149 ft 24 kts 287°
2026-05-05 04:48 33.42974 -112.02174 1149 ft 13 kts 24°
2026-05-05 04:48 33.42993 -112.02090 1149 ft 11 kts 91°
2026-05-05 04:49 33.42993 -112.02003 1149 ft 11 kts 90°
2026-05-05 04:49 33.42993 -112.01915 1149 ft 10 kts 90°
2026-05-05 04:49 33.42993 -112.01829 1149 ft 10 kts 90°
2026-05-05 04:49 33.42993 -112.01744 1149 ft 10 kts 90°
2026-05-05 04:50 33.42992 -112.01641 1149 ft 14 kts 90°
2026-05-05 04:50 33.42993 -112.01509 1149 ft 18 kts 89°
2026-05-05 04:50 33.42993 -112.01347 1149 ft 20 kts 90°
2026-05-05 04:50 33.42992 -112.01178 1149 ft 21 kts 90°
2026-05-05 04:51 33.42992 -112.01005 1149 ft 21 kts 90°
2026-05-05 04:51 33.42992 -112.00829 1149 ft 21 kts 90°
2026-05-05 04:51 33.42993 -112.00655 1149 ft 15 kts 84°
2026-05-05 04:51 33.43055 -112.00625 1149 ft 11 kts 353°
2026-05-05 04:52 33.43131 -112.00627 1149 ft 11 kts
2026-05-05 04:52 33.43190 -112.00585 1149 ft 10 kts 54°
2026-05-05 04:52 33.43212 -112.00506 1149 ft 10 kts 89°
2026-05-05 04:52 33.43252 -112.00463 1149 ft 8 kts
2026-05-05 04:53 33.43311 -112.00463 1149 ft 10 kts 359°
2026-05-05 04:53 33.43393 -112.00464 1149 ft 14 kts 360°
2026-05-05 04:53 33.43500 -112.00467 1149 ft 17 kts
2026-05-05 04:53 33.43629 -112.00467 1149 ft 19 kts 360°
2026-05-05 04:54 33.43763 -112.00467 1149 ft 20 kts
2026-05-05 04:54 33.43902 -112.00467 1149 ft 20 kts
2026-05-05 04:54 33.43975 -112.00436 1149 ft 9 kts 102°
2026-05-05 04:54 33.43972 -112.00365 1149 ft 9 kts 90°
2026-05-05 04:55 33.43971 -112.00279 1149 ft 12 kts 90°
2026-05-05 04:55 33.43971 -112.00181 1149 ft 12 kts 90°
2026-05-05 04:55 33.43960 -112.00089 1149 ft 10 kts 142°
2026-05-05 04:55 33.43896 -112.00061 1149 ft 9 kts 125°
2026-05-05 04:56 33.43849 -112.00033 1149 ft 8 kts 182°
2026-05-05 04:56 33.43793 -112.00034 1149 ft 8 kts 179°
2026-05-05 04:56 33.43767 -112.00033 1149 ft 1 kts 180°
2026-05-05 04:56 33.43756 -112.00033 1149 ft 3 kts 180°
2026-05-05 04:57 33.43737 -112.00022 1149 ft 3 kts 108°
2026-05-05 04:57 33.43738 -112.00004 1149 ft 2 kts 89°
2026-05-05 04:57 33.43738 -111.99991 1149 ft 1 kts 90°
2026-05-05 04:57 33.43738 -111.99988 1149 ft 0 kts 90°
2026-05-05 04:58 33.43738 -111.99986 1149 ft 0 kts 90°